Voltar ao catálogo

COSMOS 371

AtivoMilitarLEO
NORAD 4578·PAYLOAD·🇷🇺 Russia

Lançado Oct 12, 1970 de Plesetsk Cosmodrome

Loading…

Próximas Passagens (próximas 24 horas)

TLE

AtualizadoSource: Space-Track

Época: Sep 14, 2026, 14:24 UTC

1 04578U 70083A   26257.60012580  .00000180  00000-0  47651-4 0  9992
2 04578  74.0002   3.8158 0003123 309.2386  50.8500 14.55863284958606

Acompanhe COSMOS 371 em tempo real com AllMySat

Download on the App Store